OPS 4682 DEB, 1316

Orbit data source: Space-Track

OPS 4682 DEB, 1316 is space debris in LEO originally from a launch on Sat, 03 Apr 1965 UTC launched from the Air Force Western Test Range (AFWTR). Debris objects in space refer to the collection of defunct objects orbiting the Earth. Examples of debris include non-operational satellites, rocket bodies, and fragments generated from explosions, collisions, or faulty payload assembly.

Loading next visibility...
OPS 4682 DEB details
Identifier
1316, 1965-027C
Orbit
LEO
Last TLE update19 hours ago
Origin
Flag of USUSAF SSD (US)
ManufacturerUnknown
MissionSpacecraft
Bus & MotorUnknown
Mass7 kg wet, 7 kg dry
Launch date (UTC)
1965-04-03 (60 years ago)
Launch vehicleUnknown
Launch site
Air Force Western Test Range (AFWTR)
Object type
Payload
Rocket body
Debris
Shape & HBRHalf Cyl, 2 m
Radar Cross Section2.370 m², Medium (>0.1 m² and < 1m²)

Expand to show TLE details & history

TLE from 19 hours ago
0 OPS 4682 DEB
1 01316U 65027C   25017.93460630  .00001248  00000-0  30063-2 0  9996
2 01316  90.2471  14.9226 0033153 156.6155 203.6496 13.21499745850923
Epoch: 2025-01-17T22:25Z
Definitive object data (Epoch: 2025-01-17T22:25:49.984Z)
Latitude-0.00001°
Longitude-79.12678°
Altitude1,204.877 km
Speed7.241 km/s
True Right ascension00h 59m 41s
True Declination0° 00' 00"
Sunlit
Object was in daylight at TLE epoch
Visualization TLE readout
Latitude40.36947°
Longitude101.10086°
Altitude1,160.554 km
Speed7.288 km/s
Apparent Right ascension09h 58m 40s
Apparent Declination6° 42' 50"
Sunlit
Object is in daylight
Visualization observer readout
Local Sidereal Time18:11:23
Azimuth297.807° NW
Elevation-19.988°
Doppler factor1
Orbital elements
Apogee altitude1,201.133 km
Perigee altitude1,151.044 km
Semi-major axis7,554.226 km
Eccentricity0.0033153
Inclination90.2471°
RAAN14.9226°
Arg. of periapsis156.6155°
True anomaly203.49778°
Mean anomaly203.6496°
Eccentric anomaly203.57363°
Mean motion3.30566 °/min
BSTAR0.0030063
Orbital period108.9 mins
Loading maneuver chart data...
Loading historical data...
Loading historical data...
Loading historical data...
Loading historical data...
Loading historical data...
Loading historical data...
Loading historical data...

OPS 4682 DEB Visibility forecast

Observer location: undefined°, undefined

Span
Click to sort rows by Start time (UTC) header in descending order
Start Az.
Max El. time (UTC)
Max El. Az.
Max El.
End time (UTC)
End Az.
6 mins2025-01-18 22:13:23.701Z97.121° ESE2025-01-18 22:16:23.701Z71.32° E14.5°2025-01-18 22:19:23.701Z44.359° NE
13 mins2025-01-18 23:58:23.701Z175.165° S2025-01-19 00:04:23.701Z45.162° ENE44.997°2025-01-19 00:11:23.701Z357.796° N
6 mins2025-01-19 01:51:23.701Z261.228° W2025-01-19 01:54:23.701Z288.117° WNW14.163°2025-01-19 01:57:23.701Z313.876° NW
12 mins2025-01-19 11:23:23.701Z17.16° NNE2025-01-19 11:28:23.701Z75.969° E37.461°2025-01-19 11:35:23.701Z162.093° S
9 mins2025-01-19 13:13:23.701Z327.864° NNW2025-01-19 13:17:23.701Z281.901° WNW24.666°2025-01-19 13:22:23.701Z233.191° WSW
|